Location: Bush Observatory
(40.2653°N, 94.3194°W)
Time: 11:19:29
(UTC-06:00)

FO-29 - Visible Passes

Search period start: 24 February 2017 00:00
Search period end: 06 March 2017 00:00
Orbit: 801 x 1321 km, 98.6° (Epoch: 23 February)

Date Brightness Start Highest point End Pass type
(mag) Time Alt. Az. Time Alt. Az. Time Alt. Az.
26 Feb 12.6 00:29:11 10° N 00:29:14 10° N 00:29:14 10° N visible
26 Feb 12.5 23:33:36 10° N 23:33:38 10° N 23:33:38 10° N visible
28 Feb 12.5 00:24:17 10° N 00:24:31 11° N 00:24:31 11° N visible
28 Feb 12.5 23:28:45 10° N 23:28:55 11° N 23:28:55 11° N visible
02 Mar 12.5 00:19:23 10° N 00:19:47 11° N 00:19:47 11° N visible
02 Mar 12.4 23:23:55 10° N 23:24:10 11° N 23:24:10 11° N visible
04 Mar 12.4 00:14:30 10° N 00:15:03 12° N 00:15:03 12° N visible
04 Mar 12.4 23:19:05 10° N 23:19:25 11° N 23:19:25 11° N visible
